Starlink 5492

operational
NORAD ID: 55331 Int'l Des: 2023-013 Owner: SPXS Country: US Constellation: starlink
LEOCIRCULAR

关于 Starlink 5492

正在加载描述...

实时位置

正在加载3D地球...

即将过境

高度历史

Altitude vs Time

uPlot chart will show altitude changes over time

两行轨道根数

1 55331U 23013A 25304.98160713 -.00000069 00000-0 99505-5 0 9994
2 55331 43.0069 280.1058 0001260 268.4135 91.6563 15.02532049153429
Epoch: Oct 31, 2025 • Age: 22 hours

当前状态

高度 570.7 km
速度 7.58 km/s
星下点 -40.86°S, 159.7°E
发射日期 Jan 26, 2023
运行时间 2.7 years
类型 internet

技术详情

分类 Payload
质量 305.00 kg
干质量 290.00 kg
总质量 305.00 kg
长度 0.20 m
直径 2.80 m
跨度 9.00 m
形状 Box + pan
制造商 SPXS
平台类型 Starlink
阶段状态 In Orbit
所有者/国家 SPXS/US

大型星座

Loading constellations...